Location: Utrecht
(52.0907°N, 5.1214°E)
Time: 09:42:35
(UTC+02:00)

STARS - Visible Passes

Search period start: 27 June 2022 00:00
Search period end: 07 July 2022 00:00
Orbit: 622 x 636 km, 98.2° (Epoch: 26 June)

Date Brightness Start Highest point End Pass type
(mag) Time Alt. Az. Time Alt. Az. Time Alt. Az.
27 Jun ? 00:32:17 10° NNE 00:36:43 81° ESE 00:39:59 18° SSW visible
27 Jun ? 02:09:39 10° NNW 02:12:25 17° NW 02:15:11 10° W visible
27 Jun ? 23:17:09 10° NE 23:20:04 17° E 23:22:56 10° SE visible
28 Jun ? 00:52:25 10° N 00:56:49 67° WNW 01:00:17 16° SSW visible
28 Jun ? 02:30:38 10° NNW 02:32:16 12° NW 02:33:53 10° WNW visible
28 Jun ? 23:36:43 10° NE 23:40:23 25° E 23:43:15 14° SE visible
29 Jun ? 01:12:39 10° N 01:16:50 44° WNW 01:20:36 12° SW visible
29 Jun ? 23:56:31 10° NNE 00:00:37 37° E 00:03:32 17° SSE visible
30 Jun ? 01:32:57 10° N 01:36:49 31° WNW 01:40:39 10° SW visible
01 Jul ? 00:16:27 10° NNE 00:20:48 57° E 00:23:50 19° S visible
01 Jul ? 01:53:23 10° N 01:56:45 22° WNW 02:00:04 10° WSW visible
01 Jul ? 23:02:12 10° ENE 23:03:58 12° E 23:05:45 10° ESE visible
02 Jul ? 00:36:31 10° NNE 00:40:56 87° ESE 00:44:08 18° SSW visible
02 Jul ? 02:14:00 10° NNW 02:16:37 16° NW 02:19:11 10° W visible
02 Jul ? 23:21:15 10° NE 23:24:19 18° E 23:27:05 11° SE visible
03 Jul ? 00:56:39 10° N 01:01:00 62° WNW 01:04:26 16° SSW visible
03 Jul ? 02:35:09 10° NW 02:36:25 11° NW 02:37:41 10° WNW visible
03 Jul ? 23:40:51 10° NE 23:44:36 27° E 23:47:22 15° SE visible
04 Jul ? 01:16:53 10° N 01:21:01 41° WNW 01:24:44 12° SW visible
05 Jul ? 00:00:40 10° NNE 00:04:50 40° E 00:07:40 18° SSE visible
05 Jul ? 01:37:12 10° N 01:40:58 29° WNW 01:44:43 10° WSW visible
06 Jul ? 00:20:38 10° NNE 00:24:59 62° ESE 00:27:56 20° S visible
06 Jul ? 01:57:39 10° N 02:00:52 20° WNW 02:04:05 10° WSW visible
06 Jul ? 23:06:06 10° ENE 23:08:11 13° E 23:10:15 10° ESE visible
